Medford, WI

1:24 PM CDT on June 25, 2017 (GMT -0500)
Taylor County

Weather History for KMDZ - January, 2014

Change the Weather History Date:

Friday, January 24, 2014

  Actual Average Record
Temperature  
Mean Temperature 5 °F -  
Max Temperature 24 °F 22 °F 45 °F (1981)
Min Temperature -14 °F 3 °F -24 °F (1948)
Degree Days  
Heating Degree Days 60    
Moisture  
Dew Point 6 °F    
Average Humidity 79    
Maximum Humidity 92    
Minimum Humidity 68    
Precipitation  
Precipitation 0.00 in - - ()
Sea Level Pressure  
Sea Level Pressure 29.60 in    
Wind  
Wind Speed 13 mph (SW)    
Max Wind Speed 23 mph    
Max Gust Speed 29 mph    
Visibility 7 miles    
Events Snow    
Averages and records for this station are not official NWS values.
T = Trace of Precipitation, MM = Missing Value Source: NWS Daily Summary

Daily Weather History Graph

Daily Weather History Graph

Search for Another Location

Airport or City:

Trip Planner

Search our weather history database for the weather conditions in past years. The results will help you decide how hot, cold, wet, or windy it might be!

Date:

Astronomy

Jan. 24, 2014 Rise Set
Actual Time 7:29 AM CST 4:57 PM CST
Civil Twilight 6:57 AM CST 5:29 PM CST
Nautical Twilight 6:21 AM CST 6:05 PM CST
Astronomical Twilight 5:46 AM CST 6:40 PM CST
Moon 12:53 AM CST (1/24) 11:19 AM CST (1/24)
Length of Visible Light 10h 32m
Length of Day
9h 28m
Last Quarter, 44% of the Moon is Illuminated
Jan 24
Last Quarter
Jan 30
New
Feb 6
First Quarter
Feb 14
Full
Feb 22
Last Quarter

Hourly Weather History & Observations

Time (CST) Temp. Windchill Dew Point Humidity Pressure Visibility Wind Dir Wind Speed Gust Speed Precip Events Conditions
12:15 AM -14.8 °F -35.6 °F -19.3 °F 80% 30.17 in 10.0 mi SSW 11.5 mph - N/A   Clear
12:35 AM -13.9 °F -32.4 °F -18.4 °F 80% 30.15 in 10.0 mi SSW 9.2 mph - N/A   Clear
12:55 AM -13.0 °F -32.4 °F -17.5 °F 80% 30.13 in 10.0 mi SSW 10.4 mph - N/A   Clear
1:15 AM -12.1 °F -34.1 °F -16.6 °F 80% 30.10 in 7.0 mi SSW 13.8 mph - N/A   Scattered Clouds
1:35 AM -11.2 °F -31.1 °F -15.9 °F 80% 30.08 in 4.0 mi SSW 11.5 mph 17.3 mph N/A   Haze
1:55 AM -9.8 °F -31.9 °F -14.8 °F 78% 30.06 in 4.0 mi SSW 15.0 mph - N/A   Haze
2:15 AM -9.2 °F -31.2 °F -14.6 °F 77% 30.04 in 5.0 mi SSW 15.0 mph - N/A   Haze
2:35 AM -8.0 °F -28.8 °F -13.4 °F 77% 30.01 in 10.0 mi SSW 13.8 mph - N/A   Mostly Cloudy
2:55 AM -6.7 °F -28.7 °F -12.5 °F 76% 29.98 in 10.0 mi SSW 16.1 mph - N/A   Overcast
3:15 AM -4.9 °F -27.6 °F -11.2 °F 74% 29.96 in 10.0 mi SSW 18.4 mph - N/A   Overcast
3:35 AM -4.4 °F -26.9 °F -11.2 °F 72% 29.93 in 10.0 mi SSW 18.4 mph 25.3 mph N/A   Overcast
3:55 AM -2.7 °F -26.9 °F -9.9 °F 71% 29.90 in 10.0 mi SSW 23.0 mph 28.8 mph N/A   Overcast
4:15 AM -2.7 °F -23.5 °F -9.8 °F 72% 29.88 in 10.0 mi South 16.1 mph 21.9 mph N/A   Overcast
4:35 AM -2.2 °F -24.7 °F -9.4 °F 71% 29.85 in 7.0 mi SSW 19.6 mph 24.2 mph N/A   Overcast
4:55 AM -1.7 °F -23.4 °F -8.9 °F 71% 29.83 in 7.0 mi SSW 18.4 mph 24.2 mph N/A   Overcast
5:15 AM -0.8 °F -18.9 °F -8.7 °F 69% 29.82 in 10.0 mi SSW 12.7 mph 24.2 mph N/A   Overcast
5:35 AM -0.4 °F -19.9 °F -8.1 °F 70% 29.81 in 10.0 mi SW 15.0 mph 19.6 mph N/A   Overcast
5:55 AM 0.3 °F -18.3 °F -8.0 °F 68% 29.79 in 10.0 mi SSW 13.8 mph - N/A   Overcast
6:15 AM 1.0 °F -18.7 °F -7.4 °F 68% 29.77 in 10.0 mi SSW 16.1 mph 19.6 mph N/A   Overcast
6:35 AM 1.4 °F -17.6 °F -5.6 °F 72% 29.75 in 1.8 mi SSW 15.0 mph 21.9 mph N/A Snow Light Snow
6:55 AM 1.4 °F -16.1 °F -3.3 °F 81% 29.74 in 1.0 mi SSW 12.7 mph - N/A Snow Light Snow
7:15 AM 2.1 °F -11.6 °F -2.4 °F 81% 29.74 in 1.2 mi SW 8.1 mph 16.1 mph N/A Snow Light Snow
7:35 AM 3.2 °F -13.1 °F -1.3 °F 82% 29.72 in 1.5 mi SW 11.5 mph - N/A Snow Light Snow
7:55 AM 4.5 °F -9.8 °F 0.3 °F 83% 29.71 in 1.0 mi SW 9.2 mph 16.1 mph N/A Snow Light Snow
8:15 AM 5.5 °F -9.3 °F 1.4 °F 83% 29.70 in 1.2 mi SW 10.4 mph 17.3 mph N/A Snow Light Snow
8:35 AM 6.4 °F -9.0 °F 2.3 °F 83% 29.68 in 1.2 mi SW 11.5 mph - N/A Snow Light Snow
8:55 AM 7.3 °F -7.1 °F 3.2 °F 83% 29.67 in 2.0 mi SW 10.4 mph 18.4 mph N/A Snow Light Snow
9:15 AM 7.7 °F -7.4 °F 3.4 °F 83% 29.66 in 3.0 mi SW 11.5 mph 17.3 mph N/A Snow Light Snow
9:35 AM 8.6 °F -6.3 °F 3.9 °F 81% 29.64 in 7.0 mi SW 11.5 mph 16.1 mph N/A Snow Light Snow
9:55 AM 9.5 °F -5.2 °F 4.1 °F 79% 29.63 in 10.0 mi SW 11.5 mph - N/A   Overcast
10:15 AM 10.8 °F -3.6 °F 4.1 °F 75% 29.63 in 10.0 mi SW 11.5 mph 17.3 mph N/A   Overcast
10:35 AM 11.7 °F -3.8 °F 4.3 °F 72% 29.62 in 10.0 mi SW 13.8 mph 19.6 mph N/A   Overcast
10:55 AM 12.7 °F -2.5 °F 5.0 °F 71% 29.61 in 10.0 mi SW 13.8 mph 18.4 mph N/A   Overcast
11:15 AM 13.5 °F -0.9 °F 5.2 °F 70% 29.59 in 10.0 mi SW 12.7 mph 18.4 mph N/A   Overcast
11:35 AM 14.0 °F -0.8 °F 5.9 °F 70% 29.57 in 10.0 mi SW 13.8 mph 19.6 mph N/A   Overcast
11:55 AM 14.9 °F 1.6 °F 6.6 °F 70% 29.55 in 10.0 mi SW 11.5 mph 18.4 mph N/A   Overcast
12:15 PM 15.3 °F 1.4 °F 7.2 °F 70% 29.53 in 10.0 mi WSW 12.7 mph 19.6 mph N/A   Overcast
12:35 PM 15.8 °F 3.4 °F 7.7 °F 70% 29.52 in 10.0 mi WSW 10.4 mph - N/A   Overcast
12:55 PM 16.5 °F 3.0 °F 8.4 °F 70% 29.49 in 10.0 mi SW 12.7 mph 17.3 mph N/A   Overcast
1:15 PM 16.9 °F 3.4 °F 8.8 °F 71% 29.47 in 10.0 mi SW 12.7 mph 17.3 mph N/A   Overcast
1:35 PM 17.4 °F 6.2 °F 9.5 °F 71% 29.47 in 10.0 mi SW 9.2 mph - N/A   Overcast
1:55 PM 17.6 °F 5.7 °F 10.0 °F 72% 29.47 in 10.0 mi WSW 10.4 mph - N/A   Overcast
2:15 PM 18.1 °F 6.3 °F 10.6 °F 72% 29.45 in 10.0 mi WSW 10.4 mph - N/A   Overcast
2:35 PM 18.3 °F 7.3 °F 11.1 °F 73% 29.44 in 10.0 mi WSW 9.2 mph - N/A   Overcast
2:55 PM 18.5 °F 6.1 °F 11.8 °F 75% 29.44 in 10.0 mi WSW 11.5 mph - N/A   Overcast
3:15 PM 19.0 °F 6.1 °F 13.6 °F 79% 29.43 in 7.0 mi WSW 12.7 mph 16.1 mph N/A   Overcast
3:35 PM 19.2 °F 5.8 °F 15.6 °F 86% 29.42 in 3.0 mi WSW 13.8 mph 18.4 mph N/A Snow Light Snow
3:55 PM 19.2 °F 7.0 °F 16.7 °F 90% 29.42 in 0.5 mi WSW 11.5 mph - N/A Snow Snow
4:15 PM 19.4 °F 7.9 °F 17.1 °F 91% 29.40 in 0.5 mi SW 10.4 mph - N/A Snow Light Snow
4:35 PM 19.8 °F 9.1 °F 17.1 °F 89% 29.39 in 1.2 mi SW 9.2 mph - N/A Snow Light Snow
4:55 PM 19.8 °F 9.9 °F 17.4 °F 91% 29.37 in 1.5 mi SW 8.1 mph - N/A Snow Light Snow
5:15 PM 19.4 °F 10.4 °F 17.2 °F 91% 29.37 in 1.5 mi SW 6.9 mph - N/A Snow Light Snow
5:35 PM 19.8 °F 10.8 °F 17.4 °F 91% 29.37 in 1.5 mi SW 6.9 mph - N/A Snow Light Snow
5:55 PM 19.9 °F 12.1 °F 18.0 °F 92% 29.36 in 1.5 mi SW 5.8 mph - N/A Snow Light Snow
6:15 PM 20.3 °F 11.5 °F 18.1 °F 91% 29.35 in 10.0 mi SSW 6.9 mph - N/A Snow Light Snow
6:35 PM 20.8 °F 11.2 °F 18.7 °F 91% 29.35 in 7.0 mi West 8.1 mph - N/A Snow Light Snow
6:55 PM 22.3 °F 12.2 °F 20.3 °F 92% 29.35 in 4.0 mi West 9.2 mph 16.1 mph N/A Snow Light Snow
7:15 PM 23.0 °F 11.7 °F 21.0 °F 92% 29.34 in 3.0 mi West 11.5 mph - N/A Snow Light Snow
7:35 PM 23.4 °F 12.8 °F 21.2 °F 91% 29.33 in 3.0 mi West 10.4 mph - N/A Snow Light Snow
7:55 PM 23.9 °F 12.9 °F 21.7 °F 91% 29.32 in 7.0 mi West 11.5 mph - N/A   Overcast
8:15 PM 24.6 °F 12.7 °F 21.7 °F 89% 29.32 in 7.0 mi WNW 13.8 mph 20.7 mph N/A   Overcast
8:35 PM 24.6 °F 12.7 °F 21.6 °F 88% 29.32 in 7.0 mi WNW 13.8 mph 23.0 mph N/A   Overcast
8:55 PM 24.8 °F 13.4 °F 21.2 °F 86% 29.32 in 5.0 mi WNW 12.7 mph 25.3 mph N/A Snow Light Snow
9:15 PM 24.8 °F 14.6 °F 21.2 °F 86% 29.32 in 5.0 mi WNW 10.4 mph 20.7 mph N/A   Overcast
9:35 PM 24.8 °F 13.4 °F 21.0 °F 86% 29.32 in 5.0 mi WNW 12.7 mph 23.0 mph N/A Snow Light Snow
9:55 PM 24.4 °F 13.0 °F 20.5 °F 85% 29.31 in 10.0 mi WNW 12.7 mph 19.6 mph N/A   Overcast
10:15 PM 24.1 °F 12.0 °F 19.4 °F 82% 29.30 in 10.0 mi WNW 13.8 mph - N/A   Overcast
10:35 PM 24.6 °F 12.2 °F 19.4 °F 81% 29.31 in 10.0 mi West 15.0 mph 19.6 mph N/A   Overcast
10:55 PM 24.8 °F 14.0 °F 18.9 °F 78% 29.31 in 7.0 mi WNW 11.5 mph - N/A   Overcast
11:15 PM 24.6 °F 12.7 °F 18.9 °F 79% 29.31 in 10.0 mi WNW 13.8 mph 20.7 mph N/A   Overcast
11:35 PM 23.7 °F 10.5 °F 17.8 °F 78% 29.31 in 5.0 mi WNW 16.1 mph 20.7 mph N/A   Haze
11:55 PM 23.4 °F 9.2 °F 17.4 °F 78% 29.32 in 4.0 mi WNW 18.4 mph 24.2 mph N/A Snow Light Snow